Content
SEND FEEDBACK

Daily
Averages
Monthly
Summary
United States of America

JASPER, TEXAS


Home > North America > United States > Texas
Elevation: 9 meters     Latitude: 30 56N     Longitude: 094 00W

WEATHER
 
SELECT A DAY
Number of Records: 206,764;   Date Range: 3/13/02 - 9/18/14
 
SHARE

PRINT THIS DATA

[ ← Previous Day ]
WEATHER ALMANAC - 4 FEBRUARY, 2013
[ Next Day → ]
[ °F ]   °C
Weather ElementAverageHighLow
Temperature13.5 °C18 °C (4:35 pm)6.3 °C (2:15 am)
Dewpoint11.9 °C16.1 °C (4:35 pm)5.1 °C (1:55 am)
Humidity90 %97 % (11:15 pm)75 % (11:15 am)
Barometer1015.6 hPa1019.6 hPa (12:35 am)1012.9 hPa (4:15 pm)
Wind Speed2.9 km/h9.3 km/h (2:15 pm)
Weather ElementAverage
Visibility13.4 km
Wind DirectionNE (44.5 °)

Weather ElementTotal
Precipitation4.57 mm
Heating Degree Days6.2 (Base 18.3)
Growing Degree Days2.2 (Base 10)
Averaged from 64 records on 4 February, 2013
WEATHER CONDITIONS BREAKOUT
WIND DIRECTION BREAKOUT
WEATHER BY HOUR - 4 FEBRUARY, 2013
[ °F ]   °C
Local TimeTemperatureDewpointHumidityBarometerVisibilityWind DirectionWind SpeedGust SpeedPrecipitationEventsConditions
12:35 AM7.8 °C5.8 °C87 %1019.6 hPa16.1 kmCalmClear
12:55 AM7.3 °C5.7 °C90 %1019.6 hPa16.1 kmCalmClear
1:15 AM6.9 °C5.5 °C91 %1019.3 hPa11.3 kmCalmClear
1:35 AM6.4 °C5.3 °C93 %1019 hPa11.3 kmCalmClear
1:55 AM6.4 °C5.1 °C91 %1018.3 hPa11.3 kmCalmClear
2:15 AM6.3 °C5.1 °C92 %1018.3 hPa11.3 kmCalmClear
2:35 AM6.9 °C5.6 °C91 %1018.3 hPa11.3 kmCalmClear
2:55 AM7 °C5.9 °C93 %1017.6 hPa8 kmCalmClear
3:15 AM7 °C5.8 °C92 %1017.9 hPa11.3 kmCalmClear
4:55 AM7.8 °C6.7 °C93 %1017.3 hPa11.3 kmCalmClear
5:15 AM8 °C6.9 °C93 %1017.3 hPa8 kmCalmClear
5:35 AM8.2 °C7.1 °C93 %1017.3 hPa11.3 kmCalmClear
6:15 AM8.4 °C7.4 °C93 %1017.3 hPa11.3 kmCalmClear
6:55 AM8.8 °C7.7 °C93 %1017.3 hPa11.3 kmCalmClear
7:15 AM9.1 °C8 °C93 %1017.3 hPa8 kmCalmScattered Clouds
7:35 AM9.6 °C8.5 °C93 %1017.3 hPa8 kmCalmScattered Clouds
7:55 AM10.3 °C9 °C92 %1017.3 hPa8 kmEast (80°)5.6 km/hScattered Clouds
8:15 AM11 °C9.6 °C91 %1016.9 hPa11.3 kmENE (60°)5.6 km/hClear
8:35 AM11.9 °C10 °C88 %1017.3 hPa11.3 kmCalmScattered Clouds
8:55 AM12.6 °C10.3 °C86 %1017.6 hPa11.3 kmCalmMostly Cloudy
9:15 AM13.4 °C10.7 °C84 %1017.6 hPa16.1 kmCalmMostly Cloudy
9:35 AM14.2 °C11 °C81 %1017.6 hPa16.1 kmCalmScattered Clouds
9:55 AM14.5 °C11.1 °C80 %1017.6 hPa16.1 kmCalmMostly Cloudy
10:15 AM15 °C11.3 °C79 %1017.6 hPa16.1 kmCalmOvercast
10:35 AM15.8 °C11.6 °C76 %1017.3 hPa16.1 kmESE (110°)5.6 km/hMostly Cloudy
10:55 AM16.2 °C11.9 °C76 %1017.3 hPa16.1 kmESE (110°)5.6 km/hMostly Cloudy
11:15 AM16.7 °C12.3 °C75 %1016.9 hPa16.1 kmSE (130°)5.6 km/hMostly Cloudy
11:35 AM16.7 °C12.5 °C76 %1016.9 hPa16.1 kmCalmRainRain
11:55 AM16.4 °C13.2 °C81 %1016.9 hPa11.3 kmCalm0.25 mmRainRain
12:15 PM15.8 °C13.7 °C87 %1016.3 hPa11.3 kmCalm0.51 mmRainRain
12:35 PM15.2 °C13.7 °C91 %1015.9 hPa8 kmCalm1.27 mmRainLight Rain
12:55 PM14.9 °C13.6 °C92 %1015.2 hPa16.1 kmEast (100°)5.6 km/h1.52 mmRainLight Rain
1:15 PM14.9 °C13.7 °C93 %1014.9 hPa16.1 kmEast (100°)5.6 km/hLight Drizzle
1:35 PM15.3 °C14 °C92 %1014.6 hPa16.1 kmCalmOvercast
1:55 PM15.7 °C14.3 °C91 %1013.9 hPa16.1 kmEast (100°)5.6 km/hOvercast
2:15 PM16.1 °C14.5 °C90 %1013.5 hPa16.1 kmEast (100°)9.3 km/hLight Drizzle
2:35 PM16.4 °C14.8 °C90 %1013.5 hPa16.1 kmEast (80°)5.6 km/hLight Drizzle
2:55 PM16.6 °C15 °C90 %1013.5 hPa16.1 kmCalmOvercast
3:15 PM16.7 °C15.1 °C90 %1013.5 hPa16.1 kmENE (70°)5.6 km/hOvercast
3:35 PM16.9 °C15.3 °C90 %1013.2 hPa16.1 kmCalmMostly Cloudy
4:15 PM17.8 °C15.9 °C89 %1012.9 hPa16.1 kmESE (110°)7.4 km/hMostly Cloudy
4:35 PM18 °C16.1 °C89 %1012.9 hPa16.1 kmESE (110°)9.3 km/hMostly Cloudy
4:55 PM17.9 °C15.9 °C88 %1012.9 hPa16.1 kmESE (110°)5.6 km/hOvercast
5:15 PM17.6 °C15.7 °C89 %1012.9 hPa16.1 kmESE (110°)5.6 km/hOvercast
5:35 PM17.5 °C15.6 °C89 %1012.9 hPa16.1 kmESE (110°)7.4 km/hOvercast
5:55 PM17.3 °C15.6 °C90 %1012.9 hPa16.1 kmESE (110°)7.4 km/hOvercast
6:15 PM17.1 °C15.5 °C90 %1012.9 hPa16.1 kmEast (100°)9.3 km/hOvercast
6:35 PM16.8 °C15.5 °C92 %1012.9 hPa16.1 kmESE (110°)7.4 km/hRainLight Rain
6:55 PM16.5 °C15.3 °C93 %1012.9 hPa16.1 kmESE (110°)9.3 km/hOvercast
7:15 PM16.5 °C15.2 °C92 %1013.5 hPa16.1 kmESE (120°)5.6 km/hOvercast
7:35 PM16.5 °C15.1 °C91 %1013.2 hPa16.1 kmSE (130°)9.3 km/hRainRain
7:55 PM16.1 °C15 °C93 %1013.2 hPa11.3 kmESE (110°)9.3 km/h0.25 mmRainRain
8:15 PM15.8 °C14.7 °C93 %1013.5 hPa16.1 kmEast (80°)5.6 km/hOvercast
8:35 PM15.6 °C14.6 °C94 %1013.9 hPa16.1 kmEast (100°)7.4 km/hMostly Cloudy
8:55 PM15.5 °C14.5 °C94 %1014.2 hPa16.1 kmEast (100°)5.6 km/hMostly Cloudy
9:15 PM15.4 °C14.5 °C94 %1014.2 hPa16.1 kmEast (90°)5.6 km/hOvercast
9:35 PM15.2 °C14.4 °C95 %1014.2 hPa16.1 kmCalmOvercast
9:55 PM15 °C14.2 °C95 %1014.2 hPa8 kmCalmMostly Cloudy
10:15 PM14.5 °C13.8 °C96 %1014.2 hPa4.8 kmCalmOvercast
10:35 PM14.2 °C13.5 °C96 %1014.2 hPa8 kmCalmScattered Clouds
10:55 PM14 °C13.4 °C96 %1014.2 hPa8 kmCalmRainLight Rain
11:15 PM14.5 °C14 °C97 %1014.2 hPa11.3 kmEast (100°)5.6 km/h0.25 mmOvercast
11:35 PM14.5 °C14 °C97 %1013.9 hPa11.3 kmCalm0.25 mmOvercast
11:55 PM14.5 °C14 °C97 %1013.9 hPa11.3 kmCalm0.25 mmOvercast
Hourly data recorded from KJAS, located 0 kilometers away from Jasper, Texas







STORIES FROM OUR PARTNERS